Current Version              Previous Version:    01  02  03  04  05  06  07  08  09  10  11  12  13  14  15  16  17  18  19  20  21  22  23  24  25  26  27  28  29  30  
   31  32  33  34  35  36  37  38  39  40  41  42  43  44  45  46  47  48  49  50  51  52  53  54  55  56  57  58  59  60  

[Printable]
861
ASUS44 KFWD 011415
RWRTX
NORTH TEXAS HOURLY WEATHER ROUNDUP
NATIONAL WEATHER SERVICE FORT WORTH TX
900 AM CDT WED OCT 01 2014

NOTE: "FAIR" INDICATES FEW OR NO CLOUDS BELOW 12,000 FEET WITH NO
SIGNIFICANT WEATHER AND/OR OBSTRUCTIONS TO VISIBILITY.

TXZ118-119-011500-
DALLAS/FORT WORTH METROPLEX

CITY           SKY/WX    TMP DP  RH WIND       PRES   REMARKS
DFW AIRPORT    PTSUNNY   76  70  82 S13       29.82R
DALLAS LOVE    CLOUDY    77  70  79 S14       29.83R
FTW MEACHAM    PTSUNNY   76  70  82 S14       29.82R
DAL-EXECUTIVE  CLOUDY    77  69  76 VRB5      29.83R
FTW-ALLIANCE   PTSUNNY   76  70  82 S7G16     29.81R
FTW-NAS-JRB    PTSUNNY   78  68  71 S16       29.86R
FTW-SPINKS     PTSUNNY   75  70  83 S9        29.84R
ARLINGTON      CLOUDY    76  69  79 S9        29.83R
GRAND PRAIRIE  CLOUDY    73  68  83 MISG      29.84R
ADDISON        PTSUNNY   75  70  83 S7G13     29.84R
MESQUITE       CLOUDY    75  72  88 S10       29.84R
LANCASTER      CLOUDY    76  68  76 S9        29.85R
$$

TXZ091>094-102>105-117-120-121-131>134-011500-
NORTH CENTRAL TEXAS

CITY           SKY/WX    TMP DP  RH WIND       PRES   REMARKS
SHRMAN/DENISON SUNNY     75  69  81 S12       29.83S
GAINESVILLE    SUNNY     75  69  83 SE14      29.82F
BOWIE          SUNNY     74  69  82 SE10      29.81R
BRIDGEPORT     SUNNY     76  67  72 S10G16    29.82S
DECATUR        SUNNY     74  70  87 S10       29.82S
DENTON         MOSUNNY   75  70  84 S14       29.82R
MCKINNEY       PTSUNNY   75  70  84 S10       29.83R
GREENVILLE     CLOUDY    75  70  83 S3        29.85R
ROCKWALL       CLOUDY    75  72  90 S12       29.83R
TERRELL        CLOUDY    77  72  84 S6        29.85R
WAXAHACHIE     CLOUDY    75  71  86 S8        29.85R
CLEBURNE       CLOUDY    75  72  88 S12       29.85R
GRANBURY       MOSUNNY   78  69  75 S12       29.83R
$$

TXZ083>090-098>101-113>116-127>130-139>142-154-155-011500-
WESTERN NORTH TEXAS

CITY           SKY/WX    TMP DP  RH WIND       PRES   REMARKS
WICHITA FALLS  MOSUNNY   75  65  70 S17G24    29.76R
WF-KICKAPOO    SUNNY     74  65  72 S10       29.79R
VERNON         SUNNY     75  63  64 S12       29.78R
ABILENE        SUNNY     75  65  70 S12       29.82R
ABILENE-DYESS  SUNNY     76  64  67 S8        29.81R
BRECKENRIDGE   PTSUNNY   77  67  71 S20G28    29.80S HAZE
GRAHAM         SUNNY     76  66  69 S10G18    29.79R
MINERAL WELLS  PTSUNNY   73  68  84 S8        29.81R
STEPHENVILLE   SUNNY     75  68  79 S9        29.86R
COMANCHE       SUNNY     75  68  78 S10       29.84R
BROWNWOOD      SUNNY     73  68  83 S8        29.84R
COLEMAN        CLOUDY    70  65  82 S5        29.86R
BRADY          PTSUNNY   73  70  88 S9        29.84S
$$

TXZ143>147-156>162-174-175-011500-
CENTRAL TEXAS

CITY           SKY/WX    TMP DP  RH WIND       PRES   REMARKS
WACO           CLOUDY    78  71  79 S7        29.83S
WACO-TSTC      CLOUDY    75  72  88 SE8       29.83R
WACO-MCGREGOR  PTSUNNY   77  68  73 S10       29.84S
HILLSBORO      CLOUDY    77  69  78 S9        29.84R
CORSICANA      CLOUDY    77  72  84 S8        29.85R
MEXIA          CLOUDY    75  73  93 S5        29.83S
HEARNE         CLOUDY    77  74  91 S3        29.84R
CAMERON        CLOUDY    78  73  85 S6        29.83S
TEMPLE         CLOUDY    75  68  78 S9        29.83R
KILLEEN        CLOUDY    75  72  88 S7        29.84R
KILLEEN-SKYLRK CLOUDY    75  66  73 S7        29.83R
GATESVILLE     PTSUNNY   73  72  94 S5        29.86R
HAMILTON       SUNNY     77  70  78 S12       29.85S
LAMPASAS       MOSUNNY   76  72  88 S3        29.84R
$$

TXZ095>097-106>112-122>126-135>138-148>153-164>167-011500-
EAST TEXAS

CITY           SKY/WX    TMP DP  RH WIND       PRES   REMARKS
PARIS          CLOUDY    73  64  73 SW7       29.86R
SULPHUR SPRNGS CLOUDY    76  72  87 S7        29.87R
MOUNT PLEASANT CLOUDY    73  73 100 SW7       29.87R
GILMER         CLOUDY    75  75 100 S6        29.87R
MINEOLA        CLOUDY    75  73  94 SE3       29.85S
TYLER          CLOUDY    77  73  87 S6        29.85R
LONGVIEW       CLOUDY    77  72  84 S6        29.85R
MARSHALL       CLOUDY    76  73  91 S3        29.88S
ATHENS         CLOUDY    73  72  94 S6        29.83S
PALESTINE      CLOUDY    77  75  93 S5        29.85S
JACKSONVILLE   CLOUDY    76  74  92 S6        29.87S
HENDERSON      CLOUDY    76  74  94 S5        29.87R
NACOGDOCHES    CLOUDY    75  73  94 SE7       29.87R
LUFKIN         PTSUNNY   77  73  87 SE7       29.86R
$$

SUPPLEMENTAL OBSERVATIONS (CENTRAL)

CITY           SKY/WX    TMP DP  RH WIND       PRES   REMARKS
LAKE TEXOMA      N/A     75  68  78 S6          N/A
PAT MAYSE LAKE   N/A     73  70  88 SE9         N/A
GREENVILLE       N/A     75  70  83 S6          N/A
ATHENS           N/A     77  73  88 S6          N/A
PALESTINE        N/A     79  73  83 S5          N/A
LAKE LIMESTONE   N/A     79  75  89 S2          N/A
MCGREGOR         N/A     77  72  83 S9          N/A
TEMPLE           N/A     75  72  88 S7          N/A
$$

SUPPLEMENTAL OBSERVATIONS (WEST)

CITY           SKY/WX    TMP DP  RH WIND       PRES   REMARKS
MILLERS CREEK    N/A     75  63  64 S10         N/A
POSSUM KINGDOM   N/A     75  66  73 S13G21      N/A
GRANBURY         N/A     77  68  73 S15         N/A
COMANCHE         N/A     77  70  78 S14         N/A
HAMBY            N/A     75  66  73 S13         N/A
$$

SUPPLEMENTAL OBSERVATIONS (EAST)

CITY           SKY/WX    TMP DP  RH WIND       PRES   REMARKS
CLARKSVILLE      N/A     73  70  88 S6          N/A
TEXARKANA        N/A     79  72  78 S2          N/A
LINDEN           N/A     73  70  88 S3          N/A
CADDO LAKE       N/A     73  72  94 SE2         N/A
GILMER           N/A     75  72  88 SW3         N/A
HENDERSON        N/A     77  73  88 S5          N/A
LUFKIN           N/A     77  72  83 MISG        N/A
N SABINE NF      N/A     77  73  88 MISG        N/A
S SABINE NF      N/A     77  72  83 E2          N/A
$$

SUPPLEMENTAL OBSERVATIONS ARE A COLLECTION OF AUTOMATED INSTRUMENTS
THAT ARE MAINTAINED BY A VARIETY OF FEDERAL AND STATE AGENCIES.
CERTAIN ELEMENTS...SUCH AS HUMIDITY VALUES AND SUSTAINED WIND
SPEEDS...MAY BE APPROXIMATED.